| time (UTC) | temp F | wind direction | speed knots | gust knots | rain 1hr in | rain 24hr in | rain mn in | humidity % | barometer mb |
| 20260505121817 | 56 | 298 | 1.7 | 6.1 | 0.00 | 0.01 | 0.00 | 67 | 1016.3 |
| 20260505121314 | 56 | 312 | 2.6 | 6.1 | 0.00 | 0.01 | 0.00 | 66 | 1016.2 |
| 20260505120817 | 56 | 309 | 0.9 | 2.6 | 0.00 | 0.01 | 0.00 | 67 | 1016.2 |
| 20260505120315 | 56 | 259 | 0.9 | 4.3 | 0.00 | 0.01 | 0.00 | 67 | 1016.2 |
| 20260505115815 | 56 | 154 | 0.9 | 6.1 | 0.00 | 0.01 | 0.00 | 67 | 1016.2 |
| 20260505115316 | 56 | 129 | 0.9 | 5.2 | 0.00 | 0.01 | 0.00 | 68 | 1016.3 |
| 20260505114817 | 56 | 268 | 0.0 | 4.3 | 0.00 | 0.01 | 0.00 | 67 | 1016.3 |
| 20260505114315 | 56 | 242 | 0.9 | 5.2 | 0.00 | 0.01 | 0.00 | 67 | 1016.3 |
| 20260505113815 | 55 | 140 | 0.9 | 5.2 | 0.00 | 0.01 | 0.00 | 67 | 1016.3 |
| 20260505113316 | 55 | 118 | 0.0 | 5.2 | 0.00 | 0.01 | 0.00 | 67 | 1016.2 |
| 20260505112817 | 55 | 193 | 0.9 | 2.6 | 0.00 | 0.01 | 0.00 | 66 | 1016.3 |
| 20260505112315 | 55 | 105 | 1.7 | 4.3 | 0.00 | 0.01 | 0.00 | 66 | 1016.4 |
| 20260505111816 | 55 | 278 | 0.9 | 5.2 | 0.00 | 0.01 | 0.00 | 66 | 1016.4 |
| 20260505111316 | 55 | 239 | 1.7 | 4.3 | 0.00 | 0.01 | 0.00 | 66 | 1016.3 |
| 20260505110815 | 55 | 268 | 0.9 | 5.2 | 0.00 | 0.01 | 0.00 | 66 | 1016.4 |
| 20260505110316 | 55 | 308 | 3.5 | 7.0 | 0.00 | 0.01 | 0.00 | 65 | 1016.4 |
| 20260505101816 | 54 | 296 | 2.6 | 10.4 | 0.00 | 0.01 | 0.00 | 69 | 1016.5 |
| 20260505101316 | 54 | 302 | 2.6 | 6.1 | 0.00 | 0.01 | 0.00 | 69 | 1016.5 |
| 20260505100817 | 54 | 307 | 5.2 | 7.8 | 0.00 | 0.01 | 0.00 | 68 | 1016.5 |
| 20260505100316 | 54 | 288 | 1.7 | 6.1 | 0.00 | 0.01 | 0.00 | 70 | 1016.5 |
| 20260505095816 | 55 | 308 | 2.6 | 7.8 | 0.00 | 0.01 | 0.00 | 71 | 1016.4 |
| 20260505095316 | 54 | 301 | 4.3 | 7.0 | 0.00 | 0.01 | 0.00 | 73 | 1016.5 |
| 20260505094817 | 54 | 276 | 0.9 | 4.3 | 0.00 | 0.01 | 0.00 | 75 | 1016.5 |
| 20260505094317 | 53 | 324 | 1.7 | 5.2 | 0.00 | 0.01 | 0.00 | 73 | 1016.5 |
| 20260505093816 | 53 | 309 | 4.3 | 8.7 | 0.00 | 0.01 | 0.00 | 74 | 1016.5 |
| 20260505093317 | 53 | 316 | 4.3 | 7.0 | 0.00 | 0.01 | 0.00 | 74 | 1016.5 |
| 20260505092816 | 53 | 302 | 3.5 | 6.1 | 0.00 | 0.01 | 0.00 | 74 | 1016.6 |
| 20260505091817 | 52 | 304 | 3.5 | 5.2 | 0.00 | 0.01 | 0.00 | 77 | 1016.5 |
| 20260505091318 | 52 | 302 | 2.6 | 7.8 | 0.00 | 0.01 | 0.00 | 78 | 1016.5 |
| 20260505090817 | 52 | 318 | 2.6 | 6.1 | 0.00 | 0.01 | 0.00 | 78 | 1016.5 |
| 20260505090318 | 52 | 320 | 1.7 | 5.2 | 0.00 | 0.01 | 0.00 | 79 | 1016.4 |
| 20260505085817 | 52 | 311 | 2.6 | 6.1 | 0.00 | 0.01 | 0.00 | 80 | 1016.5 |
| 20260505085317 | 51 | 306 | 3.5 | 5.2 | 0.00 | 0.01 | 0.00 | 79 | 1016.5 |
| 20260505084818 | 51 | 314 | 1.7 | 7.0 | 0.00 | 0.01 | 0.00 | 80 | 1016.5 |
| 20260505084316 | 51 | 310 | 2.6 | 6.1 | 0.00 | 0.01 | 0.00 | 79 | 1016.5 |
| 20260505083818 | 51 | 306 | 2.6 | 5.2 | 0.00 | 0.01 | 0.00 | 79 | 1016.5 |
| 20260505083317 | 51 | 313 | 3.5 | 6.1 | 0.00 | 0.01 | 0.00 | 79 | 1016.5 |
| 20260505082817 | 51 | 314 | 5.2 | 7.8 | 0.00 | 0.01 | 0.00 | 79 | 1016.5 |
| 20260505082317 | 51 | 303 | 0.9 | 5.2 | 0.00 | 0.01 | 0.00 | 80 | 1016.5 |
| 20260505081817 | 51 | 304 | 1.7 | 6.1 | 0.00 | 0.01 | 0.00 | 80 | 1016.6 |
| 20260505081318 | 51 | 310 | 1.7 | 5.2 | 0.00 | 0.01 | 0.00 | 80 | 1016.5 |
| 20260505080317 | 50 | 298 | 1.7 | 5.2 | 0.00 | 0.01 | 0.00 | 82 | 1016.5 |
| 20260505075817 | 50 | 310 | 1.7 | 5.2 | 0.00 | 0.01 | 0.00 | 82 | 1016.5 |
| 20260505075317 | 50 | 311 | 2.6 | 6.1 | 0.00 | 0.01 | 0.00 | 82 | 1016.5 |
| 20260505074317 | 50 | 297 | 0.9 | 4.3 | 0.00 | 0.01 | 0.00 | 83 | 1016.5 |
| 20260505072817 | 49 | 308 | 1.7 | 5.2 | 0.00 | 0.01 | 0.00 | 84 | 1016.4 |
| 20260505072317 | 49 | 311 | 2.6 | 5.2 | 0.00 | 0.01 | 0.00 | 84 | 1016.4 |
| 20260505071318 | 49 | 312 | 2.6 | 5.2 | 0.00 | 0.01 | 0.00 | 85 | 1016.5 |
| 20260505070319 | 48 | 311 | 1.7 | 5.2 | 0.00 | 0.01 | 0.00 | 85 | 1016.5 |
| 20260505065818 | 48 | 308 | 2.6 | 5.2 | 0.00 | 0.01 | 0.00 | 85 | 1016.5 |
| 20260505065318 | 48 | 308 | 2.6 | 5.2 | 0.00 | 0.01 | 0.00 | 85 | 1016.6 |
| 20260505064318 | 48 | 307 | 2.6 | 5.2 | 0.00 | 0.01 | 0.00 | 86 | 1016.6 |
| 20260505063818 | 48 | 311 | 0.9 | 5.2 | 0.00 | 0.01 | 0.00 | 86 | 1016.6 |
| 20260505063317 | 48 | 311 | 2.6 | 5.2 | 0.00 | 0.01 | 0.00 | 86 | 1016.6 |
| 20260505062819 | 48 | 312 | 2.6 | 5.2 | 0.00 | 0.01 | 0.00 | 86 | 1016.6 |
| 20260505062319 | 48 | 312 | 2.6 | 5.2 | 0.00 | 0.01 | 0.00 | 86 | 1016.6 |
| 20260505061819 | 47 | 307 | 1.7 | 5.2 | 0.00 | 0.01 | 0.00 | 86 | 1016.6 |
| 20260505061318 | 47 | 312 | 2.6 | 5.2 | 0.00 | 0.01 | 0.00 | 86 | 1016.6 |
| 20260505060818 | 47 | 314 | 2.6 | 5.2 | 0.00 | 0.01 | 0.00 | 85 | 1016.5 |
| 20260505060318 | 47 | 314 | 1.7 | 5.2 | 0.00 | 0.01 | 0.00 | 85 | 1016.5 |
| 20260505055818 | 47 | 309 | 2.6 | 5.2 | 0.00 | 0.01 | 0.00 | 85 | 1016.6 |
| 20260505055318 | 47 | 311 | 2.6 | 5.2 | 0.00 | 0.01 | 0.00 | 85 | 1016.5 |
| 20260505054818 | 47 | 305 | 1.7 | 5.2 | 0.00 | 0.01 | 0.00 | 85 | 1016.6 |
| 20260505053827 | 47 | 311 | 2.6 | 5.2 | 0.00 | 0.01 | 0.00 | 85 | 1016.6 |
| 20260505053327 | 47 | 305 | 2.6 | 5.2 | 0.00 | 0.01 | 0.00 | 85 | 1016.6 |
| 20260505051830 | 47 | 312 | 0.9 | 5.2 | 0.00 | 0.01 | 0.00 | 84 | 1016.5 |
| 20260505050819 | 47 | 314 | 1.7 | 4.3 | 0.00 | 0.01 | 0.00 | 84 | 1016.4 |
| 20260505041320 | 46 | 306 | 0.0 | 0.9 | 0.00 | 0.01 | 0.00 | 86 | 1016.3 |
| 20260505040820 | 46 | 307 | 0.0 | 0.9 | 0.00 | 0.01 | 0.00 | 87 | 1016.3 |
| 20260505040320 | 45 | 278 | 0.0 | 0.9 | 0.00 | 0.01 | 0.00 | 87 | 1016.2 |
| 20260505035821 | 45 | 276 | 0.0 | 0.9 | 0.00 | 0.01 | 0.00 | 87 | 1016.2 |
| 20260505035320 | 45 | 276 | 0.0 | 0.9 | 0.00 | 0.01 | 0.00 | 87 | 1016.2 |
| 20260505034819 | 45 | 275 | 0.0 | 0.9 | 0.00 | 0.01 | 0.00 | 86 | 1016.3 |
| 20260505034320 | 46 | 275 | 0.0 | 0.9 | 0.00 | 0.01 | 0.00 | 86 | 1016.4 |
| 20260505033819 | 46 | 302 | 0.0 | 0.9 | 0.00 | 0.01 | 0.00 | 86 | 1016.3 |
| 20260505033320 | 46 | 313 | 0.0 | 1.7 | 0.00 | 0.01 | 0.00 | 86 | 1016.3 |
| 20260505032819 | 46 | 321 | 0.9 | 2.6 | 0.00 | 0.01 | 0.00 | 86 | 1016.4 |
| 20260505032320 | 46 | 315 | 0.9 | 4.3 | 0.00 | 0.01 | 0.00 | 86 | 1016.4 |
| 20260505031821 | 46 | 310 | 0.9 | 1.7 | 0.00 | 0.01 | 0.00 | 86 | 1016.4 |
| 20260505031319 | 46 | 308 | 0.0 | 0.9 | 0.00 | 0.01 | 0.00 | 86 | 1016.4 |
| 20260505030321 | 46 | 305 | 0.9 | 1.7 | 0.00 | 0.01 | 0.00 | 86 | 1016.5 |
| 20260505025319 | 46 | 315 | 0.9 | 1.7 | 0.00 | 0.01 | 0.00 | 85 | 1016.5 |
| 20260505024320 | 46 | 314 | 0.0 | 1.7 | 0.00 | 0.01 | 0.00 | 85 | 1016.4 |
| 20260505023820 | 46 | 297 | 0.0 | 1.7 | 0.00 | 0.01 | 0.00 | 85 | 1016.4 |
| 20260505023319 | 46 | 326 | 0.9 | 1.7 | 0.00 | 0.01 | 0.00 | 85 | 1016.3 |
| 20260505022819 | 46 | 309 | 0.9 | 2.6 | 0.00 | 0.01 | 0.00 | 85 | 1016.4 |
| 20260505022320 | 46 | 314 | 0.9 | 2.6 | 0.00 | 0.01 | 0.00 | 85 | 1016.5 |
| 20260505021819 | 47 | 311 | 1.7 | 2.6 | 0.00 | 0.01 | 0.00 | 85 | 1016.4 |
| 20260505020819 | 47 | 308 | 1.7 | 4.3 | 0.00 | 0.01 | 0.00 | 85 | 1016.4 |
| 20260505020321 | 47 | 311 | 1.7 | 5.2 | 0.00 | 0.01 | 0.00 | 86 | 1016.4 |
| 20260505015320 | 47 | 292 | 0.9 | 1.7 | 0.00 | 0.01 | 0.00 | 87 | 1016.4 |
| 20260505014821 | 47 | 314 | 0.9 | 1.7 | 0.00 | 0.01 | 0.00 | 87 | 1016.4 |
| 20260505013820 | 47 | 304 | 2.6 | 5.2 | 0.00 | 0.01 | 0.00 | 87 | 1016.4 |
| 20260505013320 | 47 | 314 | 3.5 | 6.1 | 0.00 | 0.01 | 0.00 | 87 | 1016.4 |
| 20260505012820 | 47 | 313 | 3.5 | 6.1 | 0.00 | 0.01 | 0.00 | 87 | 1016.3 |
| 20260505012321 | 48 | 311 | 1.7 | 4.3 | 0.00 | 0.01 | 0.00 | 88 | 1016.3 |
| 20260505011821 | 48 | 312 | 1.7 | 4.3 | 0.00 | 0.01 | 0.00 | 88 | 1016.3 |
| 20260505011320 | 48 | 306 | 1.7 | 2.6 | 0.00 | 0.01 | 0.00 | 88 | 1016.4 |
| 20260505010821 | 48 | 306 | 1.7 | 5.2 | 0.00 | 0.01 | 0.00 | 88 | 1016.4 |
| 20260505010322 | 48 | 306 | 2.6 | 5.2 | 0.00 | 0.01 | 0.00 | 88 | 1016.4 |
| 20260505005821 | 48 | 301 | 2.6 | 5.2 | 0.00 | 0.01 | 0.00 | 88 | 1016.4 |
| 20260505005321 | 49 | 301 | 1.7 | 4.3 | 0.00 | 0.01 | 0.00 | 88 | 1016.5 |
| 20260505004821 | 49 | 307 | 2.6 | 5.2 | 0.00 | 0.01 | 0.00 | 88 | 1016.4 |
| 20260505004321 | 49 | 311 | 2.6 | 5.2 | 0.00 | 0.01 | 0.00 | 88 | 1016.5 |
| 20260505003321 | 49 | 313 | 2.6 | 5.2 | 0.00 | 0.01 | 0.00 | 88 | 1016.4 |
| 20260505002822 | 50 | 304 | 1.7 | 4.3 | 0.00 | 0.01 | 0.00 | 88 | 1016.4 |
| 20260505002320 | 50 | 310 | 1.7 | 5.2 | 0.00 | 0.01 | 0.00 | 88 | 1016.5 |
| 20260505001821 | 50 | 305 | 1.7 | 4.3 | 0.00 | 0.01 | 0.00 | 88 | 1016.4 |
| 20260505000821 | 51 | 307 | 1.7 | 4.3 | 0.00 | 0.01 | 0.00 | 88 | 1016.4 |
| 20260505000322 | 51 | 307 | 1.7 | 4.3 | 0.00 | 0.01 | 0.00 | 88 | 1016.4 |
| 20260504235822 | 51 | 311 | 2.6 | 6.1 | 0.00 | 0.01 | 0.00 | 88 | 1016.5 |
| 20260504235321 | 51 | 315 | 2.6 | 5.2 | 0.00 | 0.01 | 0.00 | 88 | 1016.6 |
| 20260504234822 | 51 | 312 | 2.6 | 5.2 | 0.00 | 0.01 | 0.00 | 88 | 1016.6 |
| 20260504233821 | 52 | 311 | 2.6 | 5.2 | 0.00 | 0.01 | 0.00 | 87 | 1016.5 |
| 20260504232321 | 52 | 301 | 0.9 | 1.7 | 0.00 | 0.01 | 0.00 | 86 | 1016.4 |
| 20260504231821 | 52 | 310 | 0.9 | 4.3 | 0.00 | 0.01 | 0.00 | 86 | 1016.5 |
| 20260504231322 | 53 | 312 | 0.9 | 2.6 | 0.00 | 0.01 | 0.00 | 86 | 1016.5 |
| 20260504230322 | 53 | 306 | 0.9 | 4.3 | 0.00 | 0.01 | 0.00 | 86 | 1016.4 |
| 20260504225821 | 53 | 313 | 0.9 | 2.6 | 0.00 | 0.01 | 0.01 | 86 | 1016.4 |
| 20260504224822 | 53 | 307 | 1.7 | 4.3 | 0.00 | 0.01 | 0.01 | 86 | 1016.4 |
| 20260504224322 | 53 | 310 | 1.7 | 4.3 | 0.00 | 0.01 | 0.01 | 86 | 1016.4 |
| 20260504223821 | 53 | 311 | 0.9 | 2.6 | 0.00 | 0.01 | 0.01 | 86 | 1016.5 |
| 20260504223322 | 53 | 310 | 0.9 | 2.6 | 0.00 | 0.01 | 0.01 | 86 | 1016.5 |
| 20260504222825 | 53 | 312 | 2.6 | 5.2 | 0.00 | 0.01 | 0.01 | 86 | 1016.6 |
| 20260504222322 | 53 | 312 | 1.7 | 5.2 | 0.00 | 0.01 | 0.01 | 85 | 1016.6 |
| 20260504221821 | 53 | 312 | 1.7 | 2.6 | 0.00 | 0.01 | 0.01 | 85 | 1016.6 |
| 20260504221323 | 54 | 312 | 1.7 | 4.3 | 0.00 | 0.01 | 0.01 | 85 | 1016.6 |
| 20260504220821 | 54 | 310 | 1.7 | 4.3 | 0.00 | 0.01 | 0.01 | 85 | 1016.7 |
| 20260504220322 | 54 | 312 | 1.7 | 4.3 | 0.00 | 0.01 | 0.01 | 85 | 1016.6 |
| 20260504215823 | 54 | 310 | 1.7 | 2.6 | 0.00 | 0.01 | 0.01 | 84 | 1016.6 |
| 20260504215321 | 54 | 318 | 0.9 | 1.7 | 0.00 | 0.01 | 0.01 | 84 | 1016.6 |
| 20260504214822 | 54 | 313 | 0.9 | 2.6 | 0.00 | 0.01 | 0.01 | 84 | 1016.6 |
| 20260504214322 | 54 | 316 | 0.9 | 2.6 | 0.00 | 0.01 | 0.01 | 84 | 1016.6 |
| 20260504213823 | 54 | 318 | 0.9 | 2.6 | 0.00 | 0.01 | 0.01 | 84 | 1016.6 |
| 20260504213322 | 54 | 314 | 0.9 | 1.7 | 0.00 | 0.01 | 0.01 | 84 | 1016.6 |
| 20260504212823 | 54 | 315 | 0.0 | 1.7 | 0.00 | 0.01 | 0.01 | 84 | 1016.6 |
| 20260504212322 | 54 | 317 | 0.9 | 1.7 | 0.00 | 0.01 | 0.01 | 85 | 1016.6 |
| 20260504211822 | 54 | 324 | 0.9 | 2.6 | 0.00 | 0.01 | 0.01 | 85 | 1016.6 |
| 20260504210823 | 54 | 311 | 0.9 | 1.7 | 0.00 | 0.01 | 0.01 | 85 | 1016.5 |
| 20260504210322 | 54 | 278 | 0.0 | 0.9 | 0.00 | 0.01 | 0.01 | 86 | 1016.6 |
| 20260504205824 | 54 | 277 | 0.0 | 0.9 | 0.00 | 0.01 | 0.01 | 86 | 1016.5 |
| 20260504205323 | 55 | 276 | 0.0 | 1.7 | 0.00 | 0.01 | 0.01 | 85 | 1016.5 |
| 20260504204822 | 55 | 308 | 0.0 | 0.0 | 0.00 | 0.01 | 0.01 | 85 | 1016.4 |
| 20260504204323 | 55 | 308 | 0.0 | 0.0 | 0.00 | 0.01 | 0.01 | 85 | 1016.4 |
| 20260504203322 | 55 | 308 | 0.0 | 0.0 | 0.00 | 0.01 | 0.01 | 85 | 1016.4 |
| 20260504202323 | 55 | 306 | 0.0 | 1.7 | 0.00 | 0.01 | 0.01 | 85 | 1016.3 |
| 20260504201823 | 55 | 299 | 0.0 | 0.9 | 0.00 | 0.01 | 0.01 | 85 | 1016.2 |
| 20260504201323 | 55 | 306 | 0.0 | 0.0 | 0.00 | 0.01 | 0.01 | 85 | 1016.2 |
| 20260504200822 | 55 | 284 | 0.0 | 0.9 | 0.00 | 0.01 | 0.01 | 85 | 1016.2 |
| 20260504195824 | 55 | 304 | 0.0 | 0.0 | 0.00 | 0.01 | 0.01 | 85 | 1016.2 |
| 20260504195324 | 55 | 308 | 0.0 | 0.9 | 0.00 | 0.01 | 0.01 | 85 | 1016.2 |
| 20260504194325 | 55 | 311 | 0.0 | 0.0 | 0.00 | 0.01 | 0.01 | 86 | 1016.2 |
| 20260504193823 | 55 | 311 | 0.0 | 0.0 | 0.00 | 0.01 | 0.01 | 86 | 1016.2 |
| 20260504193324 | 55 | 311 | 0.0 | 0.0 | 0.00 | 0.01 | 0.01 | 86 | 1016.2 |
| 20260504192824 | 55 | 311 | 0.0 | 0.0 | 0.00 | 0.01 | 0.01 | 86 | 1016.1 |
| 20260504191825 | 55 | 305 | 0.0 | 0.0 | 0.00 | 0.01 | 0.01 | 86 | 1016.0 |
| 20260504191323 | 55 | 305 | 0.0 | 0.0 | 0.00 | 0.01 | 0.01 | 86 | 1016.0 |
| 20260504190823 | 55 | 305 | 0.0 | 0.0 | 0.00 | 0.01 | 0.01 | 86 | 1016.0 |
| 20260504190325 | 55 | 305 | 0.0 | 0.0 | 0.00 | 0.01 | 0.01 | 86 | 1016.0 |
| 20260504185823 | 55 | 304 | 0.0 | 0.0 | 0.00 | 0.01 | 0.01 | 86 | 1016.0 |
| 20260504185324 | 55 | 306 | 0.0 | 0.0 | 0.00 | 0.01 | 0.01 | 86 | 1016.0 |
| 20260504184825 | 55 | 308 | 0.0 | 0.0 | 0.00 | 0.01 | 0.01 | 86 | 1016.0 |
| 20260504184323 | 55 | 304 | 0.0 | 1.7 | 0.00 | 0.01 | 0.01 | 86 | 1016.0 |
| 20260504183823 | 55 | 306 | 0.9 | 1.7 | 0.00 | 0.01 | 0.01 | 86 | 1016.0 |
| 20260504183323 | 55 | 304 | 0.9 | 1.7 | 0.00 | 0.01 | 0.01 | 86 | 1016.0 |
| 20260504182824 | 55 | 310 | 0.0 | 1.7 | 0.01 | 0.01 | 0.01 | 86 | 1016.0 |
| 20260504182323 | 55 | 303 | 0.0 | 1.7 | 0.01 | 0.01 | 0.01 | 86 | 1015.9 |
| 20260504181823 | 55 | 295 | 0.0 | 0.9 | 0.01 | 0.01 | 0.01 | 86 | 1015.9 |
| 20260504181324 | 55 | 265 | 0.0 | 0.9 | 0.01 | 0.01 | 0.01 | 86 | 1015.9 |
| 20260504180825 | 55 | 119 | 0.0 | 0.9 | 0.01 | 0.01 | 0.01 | 86 | 1015.9 |
| 20260504180323 | 55 | 119 | 0.0 | 0.0 | 0.01 | 0.01 | 0.01 | 86 | 1015.9 |
| 20260504175824 | 55 | 119 | 0.0 | 0.9 | 0.01 | 0.01 | 0.01 | 87 | 1015.8 |
| 20260504175326 | 55 | 100 | 0.0 | 0.0 | 0.01 | 0.01 | 0.01 | 87 | 1015.8 |
| 20260504174824 | 54 | 273 | 0.0 | 0.0 | 0.01 | 0.01 | 0.01 | 87 | 1015.9 |
| 20260504174323 | 55 | 294 | 0.0 | 0.0 | 0.01 | 0.01 | 0.01 | 87 | 1016.0 |
| 20260504173826 | 55 | 298 | 0.0 | 1.7 | 0.01 | 0.01 | 0.01 | 87 | 1015.9 |
| 20260504173323 | 55 | 303 | 0.9 | 1.7 | 0.01 | 0.01 | 0.01 | 87 | 1016.0 |
| 20260504172824 | 55 | 300 | 0.9 | 2.6 | 0.00 | 0.00 | 0.00 | 86 | 1016.0 |
| 20260504172323 | 56 | 303 | 0.0 | 1.7 | 0.00 | 0.00 | 0.00 | 84 | 1016.0 |
| 20260504171824 | 56 | 295 | 0.0 | 2.6 | 0.00 | 0.00 | 0.00 | 83 | 1016.0 |
| 20260504171324 | 57 | 240 | 0.0 | 2.6 | 0.00 | 0.00 | 0.00 | 82 | 1016.0 |
| 20260504170326 | 57 | 264 | 0.0 | 0.9 | 0.00 | 0.00 | 0.00 | 81 | 1015.9 |
| 20260504160325 | 58 | 109 | 0.9 | 1.7 | 0.00 | 0.00 | 0.00 | 77 | 1015.8 |
| 20260504150827 | 58 | 112 | 0.0 | 2.6 | 0.00 | 0.00 | 0.00 | 75 | 1016.0 |
| 20260504150325 | 59 | 184 | 0.0 | 1.7 | 0.00 | 0.00 | 0.00 | 75 | 1016.0 |
| 20260504141325 | 60 | 101 | 0.9 | 1.7 | 0.00 | 0.00 | 0.00 | 75 | 1015.9 |
| 20260504140326 | 60 | 113 | 0.0 | 2.6 | 0.00 | 0.00 | 0.00 | 75 | 1015.9 |